KNE889 OEDF-UBBB

Flight info

Callsign KNE889
Flight time N/A
Altitude 34000
Route METLA B419 RAMSI M444 GIRSI T444 ROTOX L570 VELUT/N0457F360 L570 IMKEN/N0455F350 N72 EGVEL/N0458F360 R654 SAV N72 BATEV T443 MOSUM
Aircraft A320/M-SDE3FGHIRWY/LB1

Departure

Time N/A
Airport King Fahd International Airport (OEDF)

Arrival

Time 2025-09-05 13:45
Airport Heydar Aliyev International Airport (UBBB)
Time Latitude Longitude Altitude Speed Heading
2025-09-05 13:33 39.78635 50.30470 9692 ft 301 kts 359°
2025-09-05 13:34 39.82787 50.30611 8941 ft 296 kts 354°
2025-09-05 13:34 39.84805 50.30150 8576 ft 291 kts 341°
2025-09-05 13:34 39.88606 50.28507 8046 ft 283 kts 337°
2025-09-05 13:35 39.92252 50.26617 7809 ft 281 kts 336°
2025-09-05 13:36 39.97637 50.23744 7443 ft 278 kts 337°
2025-09-05 13:36 40.01229 50.21860 7206 ft 279 kts 337°
2025-09-05 13:37 40.04835 50.19982 6971 ft 278 kts 337°
2025-09-05 13:37 40.08431 50.18106 6729 ft 278 kts 338°
2025-09-05 13:38 40.12041 50.16227 5860 ft 280 kts 338°
2025-09-05 13:38 40.13836 50.15288 5524 ft 276 kts 338°
2025-09-05 13:38 40.17385 50.13429 4716 ft 274 kts 339°
2025-09-05 13:39 40.20906 50.11589 3789 ft 274 kts 339°
2025-09-05 13:40 40.25929 50.08950 3309 ft 242 kts 339°
2025-09-05 13:40 40.28918 50.07379 3113 ft 223 kts 340°
2025-09-05 13:41 40.31812 50.06503 2697 ft 214 kts
2025-09-05 13:41 40.34279 50.06491 2192 ft 213 kts
2025-09-05 13:42 40.38768 50.06427 1360 ft 197 kts
2025-09-05 13:42 40.41319 50.06388 885 ft 171 kts
2025-09-05 13:43 40.43150 50.06358 554 ft 144 kts
2025-09-05 13:45 40.47534 50.06180 13 ft 0 kts 327°
2025-09-05 13:45 40.47575 50.06109 14 ft 9 kts 276°
2025-09-05 13:46 40.47515 50.06076 15 ft 4 kts 170°
2025-09-05 13:46 40.47506 50.06078 14 ft 4 kts 170°